Flag for Canada Weather past 2 weeks in Nanaimo, British Columbia, Canada

Now
60 °F

Cool.


Feels Like: 60 °F
Forecast: 59 / 69 °F
Wind: No wind

Location: Entrance Island

Current Time: Sep 18, 2014 at 7:47:35 AM

Latest Report: Sep 18, 2014 at 7:00 AM


Visibility: N/A

Pressure: 29.71 "Hg

Humidity: 90%

Dew point: 56 °F

Location of NanaimoLocation

Historic Weather in Nanaimo — Graph

°F

Nanaimo temperature yesterday

Maximum temperature yesterday: 62 °F (at 12:00 AM)
Minimum temperature yesterday: 58 °F (at 9:00 AM)
Average temperature yesterday: 61 °F

Past Weeks' High & Low Weather Summary

 TemperatureHumidityPressure
High72 °F (Sep 7, 3:00 PM)94% (Sep 18, 5:00 AM)30.35 "Hg (Sep 18, 5:00 AM)
Low56 °F (Sep 11, 7:00 AM)43% (Sep 11, 3:00 PM)29.70 "Hg (Sep 18, 4:00 AM)
Average63 °F70%29.99 "Hg
* Reported Sep 3 6:00 AM — Sep 18 6:00 AM, Nanaimo, Weather by CustomWeather, © 2014

Note: Actual official high and low records may vary slightly from our data, if they occured in-between our weather recording intervals... More about our weather records

Advertising

Nanaimo weather history for previous 24 hours

 ConditionsComfort  
Time TempWeatherWind HumidityBarometerVisibility
6:00 AM
Sep 18
60 °FCool.1 mph89%29.71 "HgN/A
5:00 AM58 °FCool.1 mph94%29.70 "HgN/A
4:00 AM60 °FCool.1 mph89%29.70 "HgN/A
3:00 AM60 °FCool.5 mph89%29.70 "HgN/A
2:00 AM60 °FCool.2 mph88%29.71 "HgN/A
1:00 AM60 °FCool.1 mph88%29.72 "HgN/A
12:00 AM61 °FCool.3 mph87%29.72 "HgN/A
11:00 PM
Sep 17
62 °FCool.No wind85%29.72 "HgN/A
10:00 PM62 °FCool.2 mph84%29.73 "HgN/A
9:00 PM61 °FCool.6 mph86%29.73 "HgN/A
8:00 PM62 °FCool.5 mph85%29.72 "HgN/A
7:00 PM61 °FCool.5 mph83%29.72 "HgN/A
6:00 PM61 °FCool.No wind83%29.72 "HgN/A
5:00 PM61 °FCool.2 mph84%29.72 "HgN/A
4:00 PM61 °FCool.2 mph85%29.75 "HgN/A
3:00 PM61 °FCool.3 mph83%29.76 "HgN/A
2:00 PM61 °FCool.2 mph81%29.77 "HgN/A
1:00 PM60 °FCool.5 mph84%29.77 "HgN/A
12:00 PM61 °FCool.2 mph84%29.78 "HgN/A
11:00 AM60 °FCool.3 mph85%29.78 "HgN/A
10:00 AM60 °FCool.6 mph85%29.78 "HgN/A
9:00 AM58 °FCool.5 mph89%29.77 "HgN/A
8:00 AM59 °FCool.6 mph79%29.78 "HgN/A
7:00 AM59 °FCool.6 mph79%29.78 "HgN/A
Weather by CustomWeather, © 2014

See weather overviewHow to use our weather pages